Weather Roundup
Issued by NWS Springfield, MO

Home | Current Version | Previous Version | Text Only | Print | Product List | Glossary On
Versions: 1 2 3 4 5 6 7 8 9 10 11 12 13 14 15 16 17 18 19 20 21 22 23 24 25 26 27 28 29 30 31 32 33 34 35 36 37 38 39 40 41 42 43 44 45 46 47 48 49 50
409
NZUS99 KSGF 230457
HRRSGF

HOURLY WEATHER
NATIONAL WEATHER SERVICE SPRINGFIELD MO
1100 PM CST SUN JAN 22 2017

......SGF CWA......

CITY           SKY/WX    TMP DP  RH WIND       PRES   REMARKS
SPRINGFIELD    CLOUDY    37  35  92 NW9       29.84R WCI  30
JOPLIN         CLOUDY    37  35  92 N9        29.90R WCI  30
WEST PLAINS    CLOUDY    39  35  86 NW17G26   29.73R WCI  30
ROLLA          CLOUDY    38  35  89 N16G25    29.78R WCI  29

......SURROUNDING SGF CWA......

CITY           SKY/WX    TMP DP  RH WIND       PRES   REMARKS
CHANUTE        CLEAR     34  30  85 N7        29.91R WCI  28
PARSONS        CLEAR     35  31  85 N9        29.93R WCI  28
COFFEYVILLE    CLEAR     35  31  85 NW9       29.94R WCI  28
EMPORIA        CLEAR     30  29  96 W7        29.92R WCI  23
HARRISON AR    LGT RAIN  37  36  96 NW12G21   29.81R WCI  29

......KANSAS AND MISSOURI......

CITY           SKY/WX    TMP DP  RH WIND       PRES   REMARKS
KANSAS CTY INT CLOUDY    36  31  82 N8        29.89R WCI  30
SEDALIA        CLOUDY    40  37  89 NW10      29.86R WCI  33
ST JOSEPH      CLEAR     32  32 100 N5        29.90R WCI  27
ST LOUIS       CLOUDY    41  35  79 NW16      29.73R
WICHITA        CLEAR     33  30  88 NW5       29.95R WCI  29
TOPEKA         CLEAR     34  30  85 W5        29.91R WCI  30
OLATHE         CLOUDY    37  34  89 N10       29.89R WCI  30

......TENNESSEE......

CITY           SKY/WX    TMP DP  RH WIND       PRES   REMARKS
MEMPHIS        NOT AVBL
NASHVILLE      LGT RAIN  56  53  90 N14       29.30R

......ARKANSAS.......

CITY           SKY/WX    TMP DP  RH WIND       PRES   REMARKS
FAYETTEVILLE   CLOUDY    36  34  92 N12       29.87R FOG     WCI  28
FT SMITH       CLEAR     44  33  65 NW13G21   29.85R
LITTLE ROCK    CLOUDY    51  46  83 NW21G29   29.68R

......OKLAHOMA.......

CITY           SKY/WX    TMP DP  RH WIND       PRES   REMARKS
TULSA          CLEAR     37  32  82 NW10      29.95R WCI  30
PONCA CITY     CLEAR     36  30  79 N5        29.96R WCI  32
MCALESTER      PTCLDY    48  31  51 N12       29.91R
OKLAHOMA CITY  CLEAR     39  30  70 N9        29.95R WCI  33

......IOWA............

CITY           SKY/WX    TMP DP  RH WIND       PRES   REMARKS
DES MOINES     NOT AVBL
QUAD CITIES    CLOUDY    38  34  85 NW8       29.77R WCI  32

......ILLINOIS........

CITY           SKY/WX    TMP DP  RH WIND       PRES   REMARKS
QUINCY         NOT AVBL
CHICAGO        CLOUDY    40  37  89 N9        29.69R WCI  34




USA.gov is the U.S. government's official web portal to all federal, state and local government web resources and services.